Other Public Products
Issued by NWS Charleston, SC

Current Version | Previous Version | Graphics & Text | Print | Product List | Glossary On
Versions: 1 2 3 4 5 6 7 8 9 10 11 12 13 14 15 16 17 18 19 20 21 22 23 24 25 26 27 28 29 30 31 32 33 34 35 36 37 38 39 40 41 42 43 44 45 46 47 48 49 50
080
FPUS82 KCHS 152212
OPUCHS

TEST...KCHS/KSAV Gateway Observations...TEST
National Weather Service Charleston SC
500 PM EST FRI DEC 15 2017

NOTE: "fair" indicates few or no clouds below 12,000 feet with no
significant weather and/or obstructions to visibility.

SCZ050-WAZ558-NCZ071-TXZ119-213-PAZ071-DCZ001-FLZ074-172-MI076-
NYZ176-178-MAZ016-IL014-TNZ027-NJZ106-GAZ044-MD014-152300-

...Gateway Observations for Charleston International...

CITY           SKY/WX    TMP DP  RH WIND       PRES   REMARKS
Chas Airport   CLOUDY    57  42  57 W7        29.99R
Seattle        CLOUDY    42  40  92 S6        30.17F
Charlotte      CLOUDY    44  29  55 N3        29.97R
Dallas DFW     MOSUNNY   57  22  25 VRB3      30.20F
Dallas Love    MOSUNNY   55  24  30 NW3       30.22F
Philladelphia  LGT SNOW  25  22  88 VRB3      29.95F VSB 3/4
Wash National  CLOUDY    29  26  89 N6        29.95F WCI  23
Baltimore      CLOUDY    26  25  96 CALM      29.93F FOG
Miami          MOCLDY    75  59  57 SE6       30.08R
Detroit        FLURRIES  30  19  63 W14       29.84R WCI  19
Newark         LGT SNOW  23  20  88 W8        29.94R VSB 3/4 WCI  14
Laguardia      SNOW      25  22  88 VRB5      29.93R VSB 1/2 WCI  19
J F K          LGT SNOW  25  23  92 W7        29.95R VSB 1   WCI  17
Boston Logan   CLOUDY    26  13  57 S5        29.92F WCI  20
Ft. Lauderdale PTCLDY    74  59  59 S5        30.07R
Chicago O`Hare CLOUDY    32  23  69 W9        29.90R WCI  24
Chicago Midway FLURRIES  33  24  69 W14       29.92R WCI  23
Houston Bush   PTSUNNY   55  33  43 N6        30.25S
Houston Hobby  PTSUNNY   54  35  48 VRB5      30.24F
Nashville      PTCLDY    41  22  46 SW7       30.15R
Atlanta        MOCLDY    38  24  57 NW14      30.11R WCI  30

$$

GAZ044-118-TXZ119-213-NCZ071-DCZ001-MDZ014-506-PAZ021-071-NJZ106-
NYZ176-178-MAZ106-OHZ011-021-055-MIZ076-KYZ091-ILZ014-INZ047-
MNZ060-ONZ431-152300-

...Gateway Observations for Savannah International...

CITY           SKY/WX    TMP DP  RH WIND       PRES   REMARKS
Savannah Arpt  CLOUDY    57  43  59 SW8       30.03S
Atlanta        MOCLDY    38  24  57 NW14      30.11R WCI  30
Charlotte      CLOUDY    44  29  55 N3        29.97R
Dallas DFW     MOSUNNY   57  22  25 VRB3      30.20F
Houston Bush   PTSUNNY   55  33  43 N6        30.25S
Wash National  CLOUDY    29  26  89 N6        29.95F WCI  23
Wash Dulles    MOCLDY    26  24  92 CALM      29.93S
Baltimore      CLOUDY    26  25  96 CALM      29.93F FOG
Philadelphia   LGT SNOW  25  22  88 VRB3      29.95F VSB 3/4
Newark         LGT SNOW  23  20  88 W8        29.94R VSB 3/4 WCI  14
Laguardia      SNOW      25  22  88 VRB5      29.93R VSB 1/2 WCI  19
J F K          LGT SNOW  25  23  92 W7        29.95R VSB 1   WCI  17
Boston         CLOUDY    26  13  57 S5        29.92F WCI  20
Pittsburg      FLURRIES  28  17  63 W12       29.87R WCI  18
Akron          LGT SNOW  25  19  78 SW15      29.86R VSB 1   WCI  13
Cleveland      CLOUDY    27  19  72 W21       29.90R WCI  13
Cincinnati     CLOUDY    32  22  66 W10       30.02R WCI  24
Columbus       CLOUDY    30  20  64 W15       29.98R WCI  19
Detroit        FLURRIES  30  19  63 W14       29.84R WCI  19
Chicago O`Hare CLOUDY    32  23  69 W9        29.90R WCI  24
Minneapolis    CLOUDY    28  22  78 SE3       29.79S
Indianapolis   PTCLDY    30  18  60 W12       30.02R WCI  20
Toronto Canada LGT SNOW  25  19  80 SW9       29.71F WCI  15

$$




USA.gov is the U.S. government's official web portal to all federal, state and local government web resources and services.